Dewpoint
57 58 59 60 61 62 61 61 61 59 59 57 56 54 52 51 51 50 51 60 60 61 59 64 66 66 64 61 60 59 58 56 55 56 55 55 55 56 57 57 57 57 56
61 61 58 55 55 57 56 56 57 57 58 58 58 57 56 54 55 55 54 53 61 60 61 59 63 66 66 64 62 61 60 59 58 57 56 56 55 54 54 55 55 56 56
61 61 60 58 57 55 54 55 56 58 59 59 59 59 59 59 57 57 57 55 56 60 61 60 60 62 64 65 65 64 62 61 60 59 57 57 56 54 54 54 55 55 55
61 60 60 60 60 59 57 58 58 58 59 59 59 59 59 59 59 59 59 58 56 55 59 62 63 62 63 63 64 64 64 63 62 60 59 58 57 56 55 54 54 55 55
61 61 61 61 61 61 61 60 60 60 60 60 60 60 60 60 60 60 60 60 60 60 57 60 61 62 63 62 62 63 63 63 63 63 61 60 58 58 57 55 55 55 54
62 62 62 62 62 62 62 61 61 61 61 61 61 61 61 61 61 61 60 60 60 58 59 57 58 58 61 62 62 62 62 62 63 62 63 62 60 59 58 58 56 55 55
62 62 62 62 62 61 60 60 61 60 60 61 61 59 60 60 61 61 60 60 58 56 56 56 56 56 56 60 62 62 62 61 62 62 62 62 62 61 60 60 58 57 56
63 63 63 63 63 62 62 62 62 62 62 62 60 59 56 56 57 57 57 57 54 53 53 52 51 51 52 54 57 58 59 60 60 60 61 62 62 63 62 61 60 59 57
65 65 65 65 65 65 64 64 64 63 61 61 61 58 55 53 54 54 54 54 53 52 50 50 49 50 50 52 53 52 53 54 55 56 57 57 58 60 61 62 63 62 59
54 53 55 59 63 64 62 61 61 60 59 59 58 60 59 57 55 52 53 54 53 50 50 49 49 49 50 49 50 53 53 54 55 56 57 57 57 58 59 60 60 62 61
51 52 52 53 53 54 54 56 56 56 57 56 55 54 54 55 55 53 50 52 53 53 52 51 49 48 47 46 48 52 52 53 54 55 56 56 56 58 57 58 58 60 60
52 52 52 52 52 53 54 54 55 55 55 55 54 53 52 52 52 52 52 51 51 53 53 50 48 48 46 47 49 51 50 51 53 54 55 55 54 55 55 56 57 57 58
51 51 51 51 51 51 51 51 52 52 53 54 53 53 54 54 54 53 52 51 52 53 51 49 47 46 45 45 48 48 49 49 51 52 53 54 53 53 52 52 54 55 56
50 50 49 49 48 48 48 49 50 51 52 53 52 53 54 54 56 55 54 51 49 50 51 47 46 45 45 44 47 46 46 47 47 48 49 50 52 50 50 52 53 54 55
46 46 46 46 46 46 47 47 48 50 50 51 52 50 52 52 51 53 54 54 53 48 49 46 44 44 44 44 45 44 44 45 47 47 47 49 51 53 54 54 54 54 55
44 44 44 44 44 44 45 46 47 48 48 49 49 50 50 50 50 50 51 51 52 51 48 46 43 44 44 42 43 42 43 43 45 45 46 47 48 49 51 52 53 53 53
43 43 43 42 42 42 43 43 45 46 46 46 46 47 47 48 48 47 47 47 47 47 47 43 43 42 40 40 40 41 41 41 43 42 43 45 45 47 48 48 48 48 49
42 41 41 41 41 41 41 41 43 43 45 46 45 46 44 45 44 44 44 43 41 40 43 42 42 41 39 38 36 38 39 39 39 38 39 41 42 43 44 45 45 46 46
41 40 40 39 39 40 40 40 41 41 40 40 40 40 41 41 40 39 40 41 41 40 37 37 38 39 38 37 37 37 37 35 37 35 34 35 36 39 40 42 41 41 41
40 40 39 39 38 38 39 39 40 39 39 39 38 38 38 38 38 39 40 40 40 39 39 38 38 37 36 36 36 31 31 31 30 27 28 31 32 34 33 36 35 35 35
39 39 39 39 39 38 38 39 40 40 39 39 39 38 38 39 40 39 38 38 38 37 36 36 36 36 36 34 30 30 27 26 27 25 23 22 23 24 27 32 31 29 30
38 38 38 38 38 37 39 40 40 39 38 37 36 35 36 36 37 37 36 36 35 35 35 34 32 31 29 27 27 25 24 22 22 25 21 20 22 19 20 20 25 28 29
36 36 37 38 38 39 40 40 40 38 37 35 33 31 30 32 30 28 31 31 30 33 33 30 25 24 25 26 26 25 25 22 23 24 21 17 21 20 23 23 28 28 31
35 35 37 38 37 38 40 39 39 35 34 33 32 28 27 27 27 27 26 27 28 28 28 27 27 27 27 27 27 27 25 24 24 23 21 18 21 22 23 23 29 28 28
35 37 38 37 36 37 37 37 34 31 28 27 29 30 31 28 28 27 25 24 23 27 27 27 27 26 26 25 26 24 23 20 20 18 23 21 23 24 24 25 24 29 28
36 36 34 35 37 35 36 33 30 27 25 25 27 27 31 31 32 29 25 20 18 21 23 22 20 20 19 19 22 22 22 13 16 17 22 20 23 23 18 24 26 25 25
Lifted_Index
3 3 3 3 3 3 3 3 3 3 3 3 3 3 3 3 3 4 4 4 4 4 3 2 1 1 1 2 3 4 5 5 5 6 6 6 6 6 5 5 4 4 4
1 2 2 3 3 4 4 4 3 3 2 2 2 2 2 2 2 2 3 3 3 3 3 2 2 1 1 1 2 3 4 4 4 5 5 6 6 6 5 5 5 4 4
0 1 1 2 2 3 3 3 3 3 2 2 1 1 1 1 1 1 1 1 2 2 2 2 2 2 1 1 1 1 2 2 3 3 4 5 5 6 6 5 5 4 4
-0 0 0 1 1 1 2 2 2 2 1 1 1 1 1 1 1 1 1 1 1 1 1 2 2 2 2 1 1 1 1 1 1 2 3 3 4 5 5 5 5 5 4
-1 -0 -0 -0 -0 -0 0 0 0 0 0 0 1 1 1 1 1 1 0 0 0 1 2 2 2 2 3 2 2 1 1 1 1 1 1 2 3 4 4 4 4 4 4
-1 -1 -1 -1 -1 -1 -1 -1 -0 -0 -0 0 1 1 1 1 1 1 0 0 0 1 2 2 2 3 3 3 3 2 1 1 0 0 1 1 2 2 3 3 4 4 4
-2 -2 -1 -1 -1 -1 -1 -1 -1 -0 -0 0 1 1 1 1 1 1 1 1 1 1 2 3 3 3 4 4 3 3 2 2 1 1 1 0 1 1 2 2 2 3 3
-2 -2 -2 -2 -2 -2 -1 -1 -1 -1 -0 0 1 1 1 2 2 2 2 1 1 2 3 3 4 4 4 4 5 4 4 3 3 2 1 1 0 0 0 1 1 1 2
-3 -3 -3 -3 -2 -2 -1 -1 -1 -0 -0 0 1 1 1 2 2 2 2 2 2 2 3 3 4 4 4 5 5 6 6 5 5 4 3 2 1 1 0 -0 -0 0 0
-3 -3 -3 -3 -2 -1 -0 0 0 1 1 1 2 2 2 2 2 3 3 3 3 3 3 3 4 4 4 5 6 7 7 6 6 5 4 3 2 2 1 0 -0 -0 -0
-3 -2 -1 -0 0 1 2 2 2 3 3 3 3 3 3 3 3 3 4 4 4 4 4 3 4 4 5 6 7 7 8 7 7 6 5 4 4 3 2 2 1 0 -0
-1 0 2 4 4 5 5 5 5 5 5 4 4 5 5 5 4 4 4 4 4 4 4 4 4 4 5 6 7 8 8 8 8 7 6 6 5 5 4 4 3 2 1
1 3 5 6 7 7 7 7 7 7 6 5 5 5 5 5 4 4 4 4 4 4 4 4 5 5 5 6 7 8 8 8 8 8 7 7 7 7 6 5 4 3 2
4 5 6 7 7 8 8 8 8 8 7 6 5 5 5 5 4 4 4 4 4 4 4 5 5 5 6 6 7 8 8 8 8 8 8 8 8 8 6 5 5 4 4
6 6 6 7 7 8 8 8 8 8 7 7 6 6 6 6 5 5 5 4 4 4 4 5 5 5 6 7 8 8 9 8 8 9 9 10 9 8 7 6 5 5 5
6 6 7 7 7 7 7 7 7 8 7 7 7 8 7 7 6 6 5 5 4 4 5 5 5 6 6 7 8 9 9 9 9 10 10 11 10 10 8 7 7 6 6
6 6 7 7 7 7 7 7 7 8 8 8 8 8 8 8 7 7 6 6 5 5 5 5 6 7 7 8 9 10 10 10 10 11 11 11 11 11 10 9 8 8 8
5 6 6 6 7 7 7 7 7 7 8 8 8 9 9 8 8 8 7 7 7 7 6 6 7 8 8 9 10 10 10 10 11 11 11 11 11 11 11 10 10 9 9
4 5 5 6 6 7 7 7 7 7 7 7 8 8 8 9 9 9 9 9 8 8 8 8 8 8 9 10 10 10 10 11 12 12 12 12 12 11 11 11 10 10 10
4 5 6 6 7 7 7 7 7 7 7 7 8 8 8 9 9 9 9 9 9 9 9 9 8 9 10 11 11 11 12 12 13 13 14 14 14 14 13 13 12 11 11
5 5 6 7 7 7 7 7 7 7 7 7 8 8 8 9 9 9 9 9 9 9 9 10 10 10 12 13 13 14 14 14 14 16 16 16 17 17 17 16 15 15 14
6 6 6 7 7 7 7 7 7 7 7 7 8 8 8 9 10 11 11 11 11 12 12 12 12 12 13 14 15 15 15 14 15 17 17 17 18 18 19 19 18 18 18
6 6 6 7 7 8 8 7 7 7 8 8 8 8 9 11 13 14 14 15 15 15 15 15 14 14 15 16 17 16 16 15 16 18 17 17 17 18 19 19 19 19 19
6 6 7 8 9 9 9 8 8 8 8 9 10 11 12 14 16 16 16 16 16 16 17 17 17 17 18 18 19 18 17 17 17 18 18 17 17 17 18 18 18 18 18
6 7 8 9 10 10 10 9 8 9 9 10 12 14 15 16 17 17 16 15 15 16 17 18 19 19 20 20 20 19 17 16 16 17 17 17 16 16 16 17 17 18 18
7 7 8 9 10 10 10 9 9 9 10 12 15 16 17 17 17 17 16 14 14 15 17 18 19 19 20 20 20 20 18 16 15 16 17 17 16 16 15 16 17 17 17